Location: Tamazert
(32.6352°N, 5.2072°W)
Time: 08:49:27
(UTC+00:00)

Courier 1B Rocket - Pass Details

Date: 09 October 2022
Orbit: 920 x 1202 km, 28.3° (Epoch: 01 December)

Event Time Altitude Azimuth Distance (km) Brightness Sun altitude
Rises 20:44:35 0° 272° (W) 3,800 9.0 -36.1°
Reaches altitude 10° 20:47:32 10° 264° (W) 2,800 8.0 -36.7°
Enters shadow 20:51:31 30° 237° (WSW) 1,676 6.4 -37.5°
